QPF
0.00 0.00 0.00 0.00 0.00 0.00 0.00 0.00 0.00 0.00 0.00 0.00 0.00 0.01 0.00 0.00 0.00 0.00 0.00 0.00 0.00 0.00 0.00 0.00 0.01 0.00 0.01 0.02 0.01 0.02 0.04 0.05 0.06 0.07 0.07 0.08 0.08 0.08 0.08 0.05 0.05 0.06 0.05 0.05
0.00 0.00 0.00 0.00 0.00 0.00 0.00 0.00 0.00 0.00 0.00 0.00 0.01 0.01 0.01 0.01 0.00 0.00 0.00 0.00 0.00 0.00 0.00 0.00 0.01 0.00 0.00 0.02 0.02 0.04 0.06 0.05 0.05 0.07 0.08 0.08 0.07 0.06 0.06 0.06 0.08 0.07 0.05 0.05
0.00 0.00 0.00 0.00 0.00 0.00 0.00 0.00 0.00 0.00 0.00 0.00 0.01 0.04 0.04 0.02 0.01 0.00 0.00 0.00 0.00 0.00 0.00 0.00 0.01 0.00 0.00 0.01 0.01 0.03 0.05 0.04 0.05 0.06 0.07 0.08 0.08 0.07 0.07 0.07 0.09 0.07 0.05 0.05
0.00 0.00 0.00 0.00 0.00 0.00 0.00 0.00 0.00 0.00 0.00 0.00 0.00 0.05 0.07 0.04 0.04 0.02 0.02 0.02 0.00 0.00 0.00 0.00 0.00 0.00 0.00 0.01 0.01 0.02 0.03 0.04 0.03 0.04 0.07 0.12 0.11 0.11 0.09 0.08 0.08 0.08 0.06 0.07
0.00 0.00 0.00 0.00 0.00 0.00 0.00 0.00 0.00 0.00 0.00 0.00 0.01 0.02 0.06 0.05 0.07 0.05 0.04 0.02 0.00 0.00 0.00 0.00 0.00 0.00 0.00 0.00 0.00 0.02 0.04 0.05 0.04 0.04 0.06 0.10 0.13 0.11 0.09 0.09 0.12 0.11 0.08 0.06
0.00 0.00 0.00 0.00 0.00 0.00 0.00 0.00 0.00 0.00 0.00 0.00 0.00 0.01 0.04 0.04 0.08 0.05 0.03 0.01 0.00 0.00 0.00 0.00 0.00 0.00 0.00 0.00 0.00 0.01 0.03 0.04 0.04 0.03 0.04 0.07 0.10 0.10 0.10 0.11 0.11 0.09 0.06 0.05
0.00 0.00 0.00 0.00 0.00 0.00 0.00 0.00 0.00 0.00 0.00 0.00 0.00 0.00 0.00 0.02 0.03 0.04 0.03 0.01 0.00 0.00 0.00 0.00 0.00 0.01 0.01 0.00 0.01 0.00 0.01 0.02 0.03 0.03 0.04 0.06 0.07 0.07 0.09 0.10 0.08 0.06 0.04 0.03
0.00 0.00 0.00 0.00 0.00 0.00 0.00 0.00 0.00 0.00 0.00 0.01 0.00 0.00 0.00 0.00 0.00 0.00 0.00 0.00 0.00 0.00 0.00 0.00 0.00 0.00 0.00 0.00 0.00 0.01 0.01 0.02 0.02 0.03 0.04 0.06 0.05 0.06 0.07 0.08 0.07 0.05 0.03 0.03
0.00 0.00 0.00 0.00 0.00 0.00 0.00 0.00 0.00 0.00 0.00 0.00 0.01 0.00 0.00 0.00 0.00 0.00 0.00 0.00 0.00 0.00 0.00 0.00 0.00 0.00 0.00 0.00 0.00 0.01 0.02 0.02 0.02 0.02 0.04 0.04 0.04 0.05 0.07 0.08 0.06 0.05 0.05 0.03
0.00 0.00 0.00 0.00 0.00 0.00 0.00 0.00 0.00 0.00 0.00 0.00 0.01 0.01 0.01 0.01 0.01 0.00 0.00 0.00 0.00 0.00 0.00 0.00 0.00 0.00 0.00 0.00 0.00 0.01 0.02 0.03 0.03 0.03 0.04 0.04 0.04 0.05 0.07 0.07 0.07 0.06 0.06 0.06
0.00 0.00 0.00 0.00 0.00 0.00 0.00 0.00 0.00 0.00 0.00 0.00 0.02 0.02 0.01 0.02 0.01 0.01 0.01 0.00 0.00 0.00 0.00 0.00 0.00 0.00 0.01 0.00 0.00 0.00 0.01 0.03 0.03 0.04 0.04 0.04 0.04 0.05 0.07 0.08 0.07 0.07 0.08 0.08
0.00 0.00 0.00 0.00 0.00 0.00 0.00 0.00 0.00 0.00 0.00 0.00 0.01 0.01 0.00 0.00 0.01 0.01 0.02 0.01 0.00 0.01 0.00 0.00 0.00 0.00 0.03 0.01 0.00 0.01 0.01 0.02 0.03 0.03 0.03 0.03 0.03 0.04 0.05 0.05 0.05 0.06 0.06 0.05
0.00 0.00 0.00 0.00 0.00 0.00 0.00 0.00 0.00 0.00 0.00 0.00 0.00 0.00 0.00 0.00 0.00 0.00 0.00 0.00 0.01 0.04 0.01 0.00 0.00 0.01 0.07 0.03 0.01 0.01 0.01 0.02 0.03 0.04 0.04 0.04 0.03 0.03 0.03 0.04 0.05 0.06 0.05 0.05
0.00 0.00 0.00 0.00 0.01 0.00 0.00 0.00 0.00 0.00 0.00 0.00 0.00 0.00 0.00 0.00 0.01 0.00 0.00 0.00 0.01 0.03 0.03 0.00 0.00 0.01 0.03 0.03 0.02 0.03 0.04 0.07 0.05 0.04 0.04 0.03 0.03 0.02 0.03 0.03 0.04 0.05 0.07 0.08
0.00 0.00 0.00 0.00 0.00 0.00 0.00 0.00 0.00 0.00 0.00 0.00 0.00 0.00 0.03 0.03 0.03 0.01 0.00 0.00 0.01 0.04 0.04 0.00 0.00 0.00 0.01 0.02 0.02 0.02 0.02 0.05 0.06 0.05 0.03 0.02 0.02 0.01 0.01 0.02 0.03 0.04 0.05 0.06
0.00 0.00 0.00 0.00 0.00 0.00 0.00 0.00 0.00 0.00 0.00 0.00 0.00 0.01 0.03 0.06 0.03 0.02 0.00 0.00 0.00 0.01 0.02 0.00 0.00 0.00 0.00 0.00 0.01 0.01 0.01 0.01 0.01 0.01 0.01 0.01 0.01 0.01 0.02 0.02 0.02 0.05 0.06 0.05
0.00 0.00 0.00 0.00 0.00 0.00 0.00 0.00 0.00 0.00 0.00 0.00 0.00 0.01 0.01 0.01 0.01 0.00 0.00 0.00 0.00 0.00 0.00 0.00 0.00 0.00 0.00 0.01 0.01 0.01 0.00 0.01 0.01 0.01 0.01 0.01 0.01 0.01 0.02 0.02 0.03 0.04 0.05 0.06
0.00 0.00 0.00 0.00 0.00 0.00 0.00 0.00 0.00 0.00 0.00 0.00 0.01 0.02 0.03 0.01 0.00 0.00 0.00 0.00 0.00 0.00 0.00 0.00 0.00 0.00 0.01 0.01 0.01 0.04 0.03 0.01 0.01 0.01 0.00 0.01 0.01 0.01 0.02 0.03 0.04 0.05 0.06 0.06
0.00 0.00 0.00 0.00 0.00 0.00 0.00 0.00 0.00 0.00 0.00 0.00 0.00 0.01 0.02 0.01 0.00 0.00 0.00 0.00 0.00 0.00 0.00 0.00 0.00 0.01 0.01 0.01 0.02 0.03 0.02 0.01 0.02 0.01 0.01 0.01 0.02 0.03 0.03 0.03 0.04 0.05 0.06 0.06
0.00 0.00 0.00 0.00 0.00 0.00 0.01 0.00 0.00 0.00 0.01 0.00 0.00 0.00 0.00 0.00 0.01 0.02 0.01 0.02 0.00 0.00 0.00 0.00 0.01 0.01 0.02 0.02 0.02 0.02 0.02 0.01 0.01 0.02 0.01 0.02 0.03 0.03 0.04 0.04 0.06 0.07 0.07 0.08
0.00 0.00 0.00 0.00 0.00 0.01 0.02 0.01 0.00 0.01 0.01 0.00 0.00 0.00 0.00 0.01 0.02 0.01 0.01 0.01 0.00 0.00 0.01 0.01 0.02 0.03 0.03 0.03 0.03 0.02 0.02 0.02 0.02 0.02 0.03 0.03 0.04 0.04 0.04 0.05 0.06 0.06 0.08 0.10
0.00 0.00 0.01 0.01 0.01 0.02 0.02 0.02 0.01 0.01 0.01 0.00 0.00 0.00 0.01 0.01 0.02 0.01 0.01 0.00 0.00 0.00 0.01 0.02 0.03 0.04 0.04 0.03 0.03 0.04 0.06 0.06 0.04 0.03 0.03 0.04 0.04 0.03 0.03 0.06 0.07 0.07 0.08 0.09
0.00 0.00 0.01 0.01 0.03 0.03 0.03 0.02 0.01 0.01 0.00 0.00 0.00 0.01 0.01 0.02 0.01 0.01 0.01 0.01 0.01 0.02 0.02 0.03 0.04 0.05 0.05 0.04 0.05 0.07 0.09 0.08 0.06 0.04 0.03 0.03 0.04 0.05 0.06 0.08 0.10 0.10 0.09 0.08
0.01 0.01 0.01 0.02 0.04 0.04 0.03 0.01 0.01 0.01 0.01 0.01 0.01 0.01 0.02 0.02 0.02 0.02 0.02 0.02 0.02 0.03 0.03 0.05 0.06 0.07 0.07 0.07 0.07 0.09 0.09 0.06 0.05 0.05 0.04 0.04 0.03 0.05 0.08 0.11 0.12 0.11 0.07 0.05
0.03 0.03 0.03 0.04 0.04 0.05 0.04 0.02 0.01 0.01 0.01 0.01 0.02 0.03 0.03 0.03 0.03 0.04 0.04 0.03 0.03 0.05 0.06 0.06 0.07 0.07 0.08 0.07 0.07 0.09 0.11 0.07 0.05 0.05 0.05 0.05 0.04 0.03 0.04 0.05 0.05 0.04 0.03 0.02
0.08 0.07 0.06 0.07 0.05 0.06 0.05 0.03 0.02 0.01 0.01 0.02 0.02 0.02 0.02 0.03 0.03 0.04 0.04 0.02 0.02 0.03 0.03 0.04 0.04 0.05 0.06 0.07 0.07 0.07 0.07 0.05 0.05 0.05 0.06 0.05 0.04 0.03 0.02 0.03 0.03 0.02 0.02 0.01
MSLP
1007.76 1008.23 1008.53 1008.69 1008.73 1008.71 1008.66 1008.59 1008.51 1008.40 1008.25 1008.04 1007.79 1007.52 1007.29 1007.16 1007.20 1007.44 1007.89 1008.54 1009.33 1010.20 1011.07 1011.86 1012.55 1013.10 1013.54 1013.87 1014.15 1014.39 1014.62 1014.85 1015.06 1015.24 1015.38 1015.46 1015.48 1015.46 1015.43 1015.41 1015.43 1015.51 1015.66 1015.87
1008.44 1008.71 1008.82 1008.82 1008.77 1008.73 1008.72 1008.76 1008.84 1008.89 1008.89 1008.80 1008.60 1008.34 1008.06 1007.84 1007.76 1007.89 1008.24 1008.81 1009.56 1010.40 1011.25 1012.04 1012.71 1013.24 1013.64 1013.94 1014.19 1014.41 1014.66 1014.92 1015.18 1015.43 1015.63 1015.76 1015.80 1015.77 1015.69 1015.60 1015.53 1015.53 1015.60 1015.76
1008.96 1009.01 1008.92 1008.77 1008.64 1008.59 1008.66 1008.85 1009.10 1009.34 1009.51 1009.54 1009.41 1009.15 1008.82 1008.51 1008.31 1008.31 1008.55 1009.03 1009.71 1010.51 1011.34 1012.12 1012.77 1013.28 1013.66 1013.93 1014.14 1014.36 1014.61 1014.90 1015.22 1015.53 1015.79 1015.97 1016.05 1016.02 1015.92 1015.78 1015.64 1015.57 1015.57 1015.67
1009.26 1009.10 1008.84 1008.57 1008.40 1008.39 1008.56 1008.91 1009.36 1009.80 1010.13 1010.28 1010.22 1009.95 1009.56 1009.13 1008.80 1008.66 1008.77 1009.14 1009.74 1010.49 1011.30 1012.06 1012.70 1013.20 1013.55 1013.79 1013.99 1014.20 1014.45 1014.76 1015.11 1015.48 1015.80 1016.03 1016.15 1016.14 1016.03 1015.86 1015.69 1015.56 1015.52 1015.57
1009.33 1009.02 1008.65 1008.32 1008.15 1008.21 1008.52 1009.04 1009.68 1010.30 1010.78 1011.03 1011.01 1010.72 1010.25 1009.70 1009.23 1008.93 1008.89 1009.15 1009.65 1010.34 1011.10 1011.84 1012.47 1012.96 1013.30 1013.53 1013.71 1013.90 1014.14 1014.46 1014.83 1015.23 1015.59 1015.87 1016.03 1016.05 1015.96 1015.80 1015.62 1015.47 1015.41 1015.44
1009.22 1008.83 1008.41 1008.09 1007.98 1008.15 1008.60 1009.29 1010.09 1010.85 1011.45 1011.77 1011.76 1011.43 1010.87 1010.20 1009.57 1009.11 1008.93 1009.04 1009.45 1010.06 1010.77 1011.49 1012.11 1012.59 1012.93 1013.15 1013.32 1013.48 1013.71 1014.02 1014.39 1014.80 1015.18 1015.49 1015.69 1015.76 1015.70 1015.57 1015.41 1015.29 1015.23 1015.27
1009.00 1008.60 1008.21 1007.96 1007.95 1008.23 1008.82 1009.63 1010.56 1011.42 1012.09 1012.44 1012.41 1012.03 1011.38 1010.59 1009.82 1009.22 1008.89 1008.87 1009.16 1009.69 1010.35 1011.03 1011.64 1012.12 1012.45 1012.67 1012.83 1012.98 1013.19 1013.47 1013.83 1014.23 1014.62 1014.96 1015.19 1015.30 1015.30 1015.22 1015.11 1015.02 1015.00 1015.06
1008.75 1008.41 1008.11 1007.96 1008.06 1008.45 1009.14 1010.03 1011.02 1011.92 1012.60 1012.94 1012.89 1012.46 1011.74 1010.85 1009.98 1009.26 1008.81 1008.68 1008.86 1009.30 1009.89 1010.53 1011.12 1011.59 1011.93 1012.15 1012.30 1012.45 1012.64 1012.90 1013.23 1013.62 1014.01 1014.36 1014.62 1014.78 1014.83 1014.81 1014.77 1014.74 1014.76 1014.86
1008.55 1008.32 1008.14 1008.10 1008.29 1008.76 1009.49 1010.40 1011.37 1012.25 1012.89 1013.20 1013.11 1012.64 1011.89 1010.96 1010.04 1009.25 1008.72 1008.50 1008.60 1008.95 1009.48 1010.06 1010.62 1011.08 1011.42 1011.65 1011.81 1011.96 1012.14 1012.39 1012.70 1013.07 1013.46 1013.82 1014.11 1014.31 1014.42 1014.47 1014.49 1014.52 1014.59 1014.73
1008.46 1008.36 1008.29 1008.35 1008.61 1009.09 1009.78 1010.63 1011.51 1012.30 1012.87 1013.12 1013.01 1012.55 1011.81 1010.91 1010.00 1009.22 1008.67 1008.41 1008.44 1008.72 1009.17 1009.70 1010.21 1010.65 1010.99 1011.23 1011.41 1011.57 1011.76 1012.01 1012.32 1012.69 1013.07 1013.44 1013.76 1014.00 1014.17 1014.27 1014.35 1014.43 1014.54 1014.70
1008.49 1008.51 1008.55 1008.67 1008.93 1009.36 1009.95 1010.65 1011.38 1012.03 1012.49 1012.69 1012.58 1012.17 1011.51 1010.72 1009.91 1009.21 1008.69 1008.43 1008.43 1008.65 1009.03 1009.49 1009.95 1010.36 1010.69 1010.95 1011.15 1011.34 1011.55 1011.81 1012.14 1012.51 1012.90 1013.29 1013.63 1013.91 1014.12 1014.28 1014.40 1014.51 1014.64 1014.81
1008.64 1008.76 1008.87 1009.00 1009.22 1009.53 1009.96 1010.47 1011.00 1011.48 1011.82 1011.97 1011.89 1011.57 1011.07 1010.45 1009.81 1009.25 1008.84 1008.62 1008.61 1008.79 1009.10 1009.48 1009.88 1010.25 1010.56 1010.82 1011.04 1011.26 1011.51 1011.80 1012.14 1012.53 1012.93 1013.33 1013.70 1014.01 1014.26 1014.46 1014.61 1014.75 1014.89 1015.04
1008.86 1009.06 1009.20 1009.32 1009.45 1009.61 1009.84 1010.12 1010.43 1010.73 1010.96 1011.07 1011.05 1010.87 1010.57 1010.18 1009.76 1009.40 1009.13 1008.99 1009.01 1009.15 1009.39 1009.70 1010.02 1010.33 1010.60 1010.85 1011.08 1011.33 1011.60 1011.91 1012.27 1012.68 1013.10 1013.51 1013.90 1014.23 1014.51 1014.73 1014.91 1015.06 1015.20 1015.33
1009.12 1009.37 1009.53 1009.60 1009.62 1009.62 1009.64 1009.69 1009.78 1009.91 1010.04 1010.14 1010.20 1010.19 1010.11 1009.98 1009.83 1009.68 1009.59 1009.55 1009.60 1009.72 1009.90 1010.12 1010.35 1010.59 1010.81 1011.03 1011.25 1011.49 1011.77 1012.10 1012.47 1012.87 1013.29 1013.71 1014.10 1014.45 1014.75 1014.99 1015.19 1015.35 1015.48 1015.60
1009.38 1009.67 1009.82 1009.85 1009.76 1009.61 1009.43 1009.27 1009.18 1009.16 1009.21 1009.32 1009.47 1009.64 1009.79 1009.92 1010.03 1010.11 1010.19 1010.27 1010.36 1010.47 1010.59 1010.72 1010.86 1011.00 1011.15 1011.32 1011.50 1011.73 1011.99 1012.30 1012.65 1013.03 1013.43 1013.83 1014.21 1014.55 1014.86 1015.12 1015.33 1015.50 1015.64 1015.75
1009.63 1009.93 1010.07 1010.05 1009.88 1009.60 1009.27 1008.95 1008.70 1008.57 1008.58 1008.71 1008.96 1009.28 1009.64 1010.01 1010.36 1010.65 1010.90 1011.08 1011.22 1011.31 1011.38 1011.43 1011.48 1011.53 1011.60 1011.69 1011.82 1011.99 1012.21 1012.46 1012.76 1013.09 1013.44 1013.79 1014.14 1014.46 1014.76 1015.02 1015.25 1015.43 1015.58 1015.70
1009.85 1010.15 1010.28 1010.22 1009.99 1009.62 1009.18 1008.75 1008.41 1008.21 1008.19 1008.35 1008.67 1009.13 1009.67 1010.24 1010.77 1011.24 1011.62 1011.90 1012.08 1012.17 1012.19 1012.18 1012.15 1012.12 1012.10 1012.12 1012.18 1012.27 1012.41 1012.59 1012.81 1013.05 1013.31 1013.59 1013.88 1014.16 1014.43 1014.69 1014.92 1015.12 1015.29 1015.43
1010.05 1010.32 1010.43 1010.35 1010.08 1009.67 1009.18 1008.70 1008.30 1008.07 1008.04 1008.22 1008.61 1009.16 1009.82 1010.52 1011.20 1011.79 1012.27 1012.62 1012.84 1012.94 1012.94 1012.89 1012.80 1012.71 1012.63 1012.58 1012.56 1012.57 1012.62 1012.70 1012.81 1012.94 1013.10 1013.27 1013.47 1013.69 1013.92 1014.15 1014.37 1014.59 1014.78 1014.95
1010.22 1010.45 1010.53 1010.43 1010.15 1009.73 1009.24 1008.75 1008.34 1008.11 1008.08 1008.28 1008.70 1009.31 1010.03 1010.81 1011.56 1012.23 1012.78 1013.17 1013.43 1013.54 1013.55 1013.48 1013.37 1013.25 1013.13 1013.02 1012.94 1012.88 1012.84 1012.82 1012.81 1012.82 1012.85 1012.92 1013.01 1013.14 1013.30 1013.48 1013.69 1013.89 1014.10 1014.29
1010.37 1010.54 1010.59 1010.47 1010.20 1009.81 1009.34 1008.87 1008.50 1008.27 1008.26 1008.47 1008.90 1009.51 1010.25 1011.04 1011.82 1012.51 1013.09 1013.51 1013.79 1013.93 1013.96 1013.91 1013.81 1013.69 1013.56 1013.44 1013.32 1013.20 1013.09 1012.97 1012.86 1012.75 1012.66 1012.60 1012.58 1012.60 1012.68 1012.79 1012.95 1013.13 1013.33 1013.52
1010.52 1010.62 1010.63 1010.50 1010.25 1009.90 1009.48 1009.07 1008.74 1008.55 1008.55 1008.76 1009.18 1009.76 1010.46 1011.22 1011.97 1012.65 1013.22 1013.65 1013.95 1014.12 1014.19 1014.17 1014.11 1014.02 1013.91 1013.80 1013.67 1013.52 1013.35 1013.16 1012.95 1012.74 1012.54 1012.36 1012.22 1012.14 1012.11 1012.15 1012.23 1012.37 1012.53 1012.71
1010.68 1010.71 1010.68 1010.56 1010.34 1010.04 1009.69 1009.35 1009.09 1008.94 1008.96 1009.16 1009.54 1010.07 1010.71 1011.39 1012.07 1012.70 1013.23 1013.65 1013.95 1014.15 1014.25 1014.29 1014.28 1014.23 1014.16 1014.07 1013.95 1013.79 1013.60 1013.36 1013.09 1012.80 1012.50 1012.22 1011.97 1011.77 1011.64 1011.58 1011.58 1011.64 1011.75 1011.90
1010.87 1010.85 1010.80 1010.69 1010.51 1010.28 1010.02 1009.77 1009.57 1009.48 1009.52 1009.70 1010.03 1010.49 1011.03 1011.62 1012.20 1012.75 1013.22 1013.60 1013.89 1014.10 1014.23 1014.31 1014.34 1014.34 1014.31 1014.25 1014.15 1014.00 1013.79 1013.53 1013.21 1012.86 1012.49 1012.12 1011.78 1011.49 1011.26 1011.09 1011.00 1010.98 1011.02 1011.11
1011.11 1011.07 1011.02 1010.94 1010.83 1010.67 1010.50 1010.34 1010.23 1010.18 1010.24 1010.40 1010.68 1011.05 1011.49 1011.96 1012.44 1012.89 1013.28 1013.60 1013.86 1014.06 1014.20 1014.29 1014.36 1014.39 1014.39 1014.35 1014.26 1014.11 1013.90 1013.61 1013.27 1012.88 1012.46 1012.03 1011.61 1011.24 1010.92 1010.67 1010.49 1010.39 1010.36 1010.39
1011.40 1011.38 1011.36 1011.34 1011.30 1011.23 1011.16 1011.09 1011.05 1011.05 1011.12 1011.27 1011.49 1011.77 1012.11 1012.47 1012.83 1013.16 1013.47 1013.72 1013.93 1014.10 1014.22 1014.32 1014.38 1014.42 1014.42 1014.38 1014.28 1014.13 1013.90 1013.60 1013.23 1012.81 1012.36 1011.89 1011.43 1011.00 1010.62 1010.30 1010.06 1009.89 1009.80 1009.78
1011.76 1011.79 1011.83 1011.88 1011.92 1011.95 1011.96 1011.98 1012.00 1012.04 1012.12 1012.24 1012.41 1012.61 1012.85 1013.10 1013.35 1013.59 1013.80 1013.98 1014.13 1014.25 1014.35 1014.41 1014.45 1014.46 1014.44 1014.37 1014.25 1014.06 1013.80 1013.48 1013.09 1012.66 1012.18 1011.70 1011.22 1010.76 1010.35 1010.00 1009.72 1009.52 1009.39 1009.34
Thickness
5860 5848 5843 5857 5868 5864 5862 5860 5859 5871 5885 5872 5859 5856 5865 5872 5866 5858 5852 5847 5841 5836 5837 5833 5828 5823 5815 5808 5801 5795 5790 5785 5781 5776 5771 5767 5765 5765 5764 5763 5761 5760 5758 5757
5844 5840 5859 5872 5874 5866 5860 5853 5858 5871 5883 5869 5858 5855 5865 5869 5865 5864 5857 5848 5844 5839 5836 5831 5827 5822 5815 5808 5802 5797 5791 5787 5782 5778 5774 5771 5769 5767 5766 5765 5763 5761 5760 5758
5833 5852 5869 5862 5856 5851 5853 5854 5857 5860 5870 5871 5856 5842 5848 5857 5862 5864 5864 5859 5853 5844 5837 5831 5827 5822 5817 5810 5805 5800 5794 5789 5784 5780 5776 5772 5769 5766 5765 5763 5762 5762 5761 5759
5843 5860 5860 5852 5850 5851 5843 5867 5866 5860 5850 5843 5848 5818 5833 5843 5846 5850 5854 5856 5854 5850 5843 5834 5828 5823 5819 5814 5810 5803 5797 5791 5786 5782 5776 5771 5765 5762 5763 5764 5763 5762 5761 5760
5838 5853 5849 5842 5850 5857 5855 5871 5864 5859 5848 5837 5841 5825 5822 5840 5831 5843 5851 5855 5857 5853 5846 5838 5832 5827 5823 5818 5812 5805 5798 5792 5787 5782 5777 5772 5768 5766 5766 5766 5763 5762 5762 5761
5844 5863 5860 5855 5862 5865 5864 5859 5854 5852 5843 5818 5835 5828 5819 5836 5838 5848 5855 5857 5856 5853 5848 5840 5835 5829 5824 5820 5813 5805 5797 5791 5788 5783 5779 5774 5769 5767 5764 5763 5762 5760 5760 5760
5824 5842 5858 5862 5847 5854 5852 5831 5811 5807 5809 5811 5843 5836 5832 5851 5863 5863 5859 5857 5857 5854 5846 5839 5832 5826 5821 5817 5812 5805 5797 5791 5788 5784 5779 5776 5772 5768 5765 5763 5761 5760 5759 5758
5806 5813 5842 5851 5843 5838 5841 5834 5806 5791 5797 5810 5827 5826 5845 5868 5872 5871 5867 5862 5857 5852 5847 5840 5834 5828 5822 5817 5812 5806 5799 5792 5789 5785 5781 5778 5774 5770 5767 5765 5763 5761 5759 5759
5817 5817 5852 5856 5857 5848 5834 5833 5846 5825 5814 5803 5809 5827 5850 5866 5863 5864 5862 5858 5853 5850 5846 5840 5835 5829 5823 5818 5812 5807 5799 5794 5790 5786 5782 5778 5775 5771 5768 5766 5764 5762 5760 5760
5827 5814 5841 5853 5853 5850 5848 5845 5835 5821 5798 5790 5802 5810 5824 5834 5843 5854 5855 5852 5851 5849 5844 5839 5835 5830 5825 5820 5813 5808 5801 5795 5791 5786 5782 5778 5775 5772 5769 5766 5763 5761 5759 5758
5827 5809 5823 5836 5827 5825 5832 5830 5829 5826 5821 5798 5787 5800 5841 5843 5848 5851 5851 5852 5849 5846 5843 5839 5835 5831 5827 5821 5814 5807 5801 5795 5790 5786 5782 5777 5774 5772 5768 5764 5762 5759 5757 5755
5821 5811 5803 5822 5843 5847 5840 5833 5828 5807 5806 5810 5801 5804 5851 5858 5858 5856 5851 5849 5849 5847 5844 5840 5834 5830 5824 5818 5813 5806 5801 5795 5790 5786 5781 5776 5772 5770 5766 5763 5761 5758 5755 5753
5811 5799 5781 5792 5814 5830 5827 5834 5834 5829 5819 5809 5800 5806 5855 5857 5854 5856 5854 5848 5846 5842 5839 5837 5832 5826 5820 5816 5812 5807 5802 5796 5791 5786 5779 5774 5770 5767 5764 5762 5759 5756 5753 5750
5807 5791 5783 5779 5798 5817 5815 5823 5830 5824 5811 5808 5812 5815 5832 5841 5846 5849 5848 5844 5841 5836 5833 5831 5826 5822 5818 5814 5810 5805 5801 5797 5791 5785 5778 5772 5769 5766 5763 5760 5757 5754 5751 5748
5796 5779 5785 5795 5811 5818 5818 5820 5823 5821 5820 5813 5817 5819 5822 5833 5839 5841 5843 5839 5834 5829 5827 5826 5823 5819 5815 5811 5807 5803 5799 5795 5789 5782 5776 5771 5768 5765 5762 5758 5755 5752 5749 5746
5782 5771 5776 5780 5799 5807 5807 5817 5823 5823 5824 5822 5820 5815 5832 5838 5838 5834 5835 5833 5827 5826 5824 5824 5822 5817 5813 5808 5804 5800 5795 5791 5786 5779 5774 5770 5766 5762 5758 5755 5751 5748 5745 5742
5767 5760 5756 5761 5785 5791 5784 5809 5818 5821 5827 5824 5810 5813 5825 5823 5821 5825 5830 5830 5826 5824 5823 5822 5819 5816 5812 5808 5804 5797 5793 5789 5783 5777 5773 5768 5764 5759 5755 5752 5747 5744 5740 5737
5753 5749 5749 5753 5761 5748 5789 5825 5825 5818 5819 5824 5819 5820 5820 5818 5823 5827 5828 5825 5823 5823 5820 5817 5818 5814 5811 5808 5803 5796 5790 5785 5780 5774 5770 5765 5761 5756 5752 5747 5743 5739 5736 5732
5759 5747 5740 5743 5744 5758 5787 5808 5814 5806 5801 5818 5816 5814 5817 5820 5818 5813 5820 5821 5818 5819 5818 5816 5817 5814 5810 5805 5800 5793 5786 5782 5776 5770 5766 5762 5757 5752 5746 5741 5737 5734 5730 5726
5754 5749 5735 5736 5732 5736 5769 5802 5816 5804 5783 5808 5809 5806 5806 5806 5792 5792 5807 5810 5811 5812 5813 5811 5812 5809 5804 5800 5796 5788 5781 5776 5770 5766 5761 5757 5752 5747 5741 5737 5733 5729 5725 5721
5730 5730 5727 5726 5729 5744 5772 5793 5799 5767 5768 5798 5801 5799 5798 5791 5788 5791 5797 5797 5799 5801 5802 5803 5801 5798 5795 5793 5787 5780 5775 5770 5767 5763 5757 5751 5747 5741 5736 5732 5728 5724 5720 5716
5727 5726 5723 5724 5721 5730 5769 5775 5766 5766 5785 5790 5789 5790 5786 5783 5783 5784 5784 5785 5787 5788 5789 5790 5787 5785 5785 5783 5777 5771 5766 5765 5762 5756 5750 5744 5740 5737 5732 5726 5722 5718 5714 5709
5724 5729 5731 5728 5729 5746 5759 5763 5769 5775 5774 5776 5777 5778 5777 5773 5771 5771 5771 5772 5774 5775 5775 5776 5774 5771 5771 5770 5767 5761 5759 5757 5752 5747 5741 5737 5733 5728 5725 5720 5716 5711 5707 5704
5717 5727 5722 5723 5730 5740 5749 5755 5761 5763 5763 5767 5768 5766 5766 5761 5761 5759 5759 5760 5761 5762 5762 5761 5760 5757 5756 5756 5754 5752 5750 5748 5743 5737 5732 5727 5723 5720 5716 5712 5709 5704 5700 5697
5701 5708 5706 5706 5719 5727 5731 5738 5743 5748 5752 5754 5755 5754 5752 5750 5748 5748 5747 5747 5747 5748 5749 5749 5746 5744 5742 5743 5742 5742 5739 5736 5731 5727 5724 5719 5715 5712 5707 5703 5698 5695 5689 5688
5689 5692 5691 5691 5706 5709 5714 5726 5732 5733 5735 5737 5737 5737 5739 5739 5736 5736 5735 5736 5736 5736 5737 5737 5735 5733 5732 5732 5731 5730 5729 5726 5721 5716 5714 5713 5709 5704 5700 5695 5688 5683 5680 5677